User: anonymous   Login
Location: Oshawa
(43.9000°N, 78.8670°W)
Time: 12:02:41
(UTC-05:00)
Language:

Cosmos 1707 Rocket - Orbit

View from above orbital plane
View from above orbital plane
View from above satellite
View from above satellite

Ground track
Ground track

The orbit data is extracted from the following two-line orbital elements,

1 16327U 85113B   17344.93833119 +.00000085 +00000-0 +73220-5 0  9995
2 16327 082.5346 287.1539 0020351 123.0748 300.9584 14.83384347706939
Epoch (UTC): 10 December 2017 22:31:11
Eccentricity: 0.0020351
inclination: 82.5346°
perigee height: 604 km
apogee height: 633 km
right ascension of ascending node: 287.1539°
argument of perigee: 123.0748°
revolutions per day: 14.83384347
mean anomaly at epoch: 300.9584°
orbit number at epoch: 70693

The dashed part of the orbit path shows where the satellite is in the earth's shadow,  

DLR